AL YAH 3 (43174 NORAD) Tracking and Keplerian Element Data

This shows tracking and keplerian element data for the satellite.

Feedback or suggestion? Click here.




ElementValue
Catalog43174
NameAL YAH 3
Epoch Orbit635
Epoch Day282.73057257
Epoch Year2019
RAAN266.2537
Inclination0.0229
Eccentricity0.0002098
Argument of Perigee284.9886
Mean Anonmoly69.7258
Mean Motion1.00272439
Decay Rate-1.69E-06
L11 43174U 18012A 19282.73057257 -.00000169 00000-0 00000+0 0 9995
L22 43174 0.0229 266.2537 0002098 284.9886 69.7258 1.00272439 6358

Live tracking and technical data element details for AL YAH 3 (NORAD 43174). AL YAH 3 can be tracked NOW for your location showing map with azimuth and elevation plus other details from your city location.

Track the satellite on the map from your city or location and see movement details for azimuth, elevation, latitude, longitude, range, height, and movement on the map or in text.







IsCatalogInMostPopularTable: catalog: 43174, numindb: 488
Update: records affected: 1



GetName: 43174 AL YAH 3

Hit Count: updated at: Mon, 14 Oct 2019 00:37:58 GMT